Estación de Longaví Norte
Ultimos registro cada 15 minutos 23
| N° | Estación | Fecha / Hora | Temperatura | Humedad | Lluvia | Velocidad | Dirección | Radiación | Presion |
| 23 | Longaví Norte | 05-05-2026 05:30 | 11,8 | 100 | 0 | 1 | 331 | 0,6 | 996,9 |
| 22 | Longaví Norte | 05-05-2026 05:15 | 11,5 | 100 | 0 | 0,7 | 173 | 0,6 | 994,2 |
| 21 | Longaví Norte | 05-05-2026 05:00 | 11,4 | 100 | 0 | 0,3 | 345 | 0,6 | 996,8 |
| 20 | Longaví Norte | 05-05-2026 04:45 | 11,4 | 100 | 0 | 0,7 | 309 | 0,6 | 996,1 |
| 19 | Longaví Norte | 05-05-2026 04:30 | 11,1 | 100 | 0 | 0 | 126 | 0,6 | 996,3 |
| 18 | Longaví Norte | 05-05-2026 04:15 | 11,4 | 100 | 0 | 0,3 | 229 | 0,6 | 996,8 |
| 17 | Longaví Norte | 05-05-2026 04:00 | 11,3 | 100 | 0 | 0,3 | 233 | 0,6 | 996,4 |
| 16 | Longaví Norte | 05-05-2026 03:45 | 11,2 | 100 | 0 | 0 | 195 | 0,6 | 996,1 |
| 15 | Longaví Norte | 05-05-2026 03:30 | 11,2 | 100 | 0 | 0,3 | 216 | 0,6 | 996,1 |
| 14 | Longaví Norte | 05-05-2026 03:15 | 10,9 | 100 | 0 | 0 | 195 | 0,6 | 996,7 |
| 13 | Longaví Norte | 05-05-2026 03:00 | 10,5 | 100 | 0 | 0 | 192 | 0,6 | 996,3 |
| 12 | Longaví Norte | 05-05-2026 02:45 | 10,6 | 100 | 0 | 0 | 192 | 0,6 | 996,3 |
| 11 | Longaví Norte | 05-05-2026 02:30 | 10,4 | 100 | 0 | 0 | 192 | 0,6 | 996,2 |
| 10 | Longaví Norte | 05-05-2026 02:15 | 10,1 | 100 | 0 | 0 | 192 | 0,6 | 996,3 |
| 9 | Longaví Norte | 05-05-2026 02:00 | 10,2 | 100 | 0 | 0 | 192 | 0,6 | 996,6 |
| 8 | Longaví Norte | 05-05-2026 01:45 | 10,3 | 100 | 0 | 0 | 192 | 0,6 | 996,7 |
| 7 | Longaví Norte | 05-05-2026 01:30 | 10,3 | 100 | 0 | 0 | 192 | 0,6 | 996,8 |
| 6 | Longaví Norte | 05-05-2026 01:15 | 10,2 | 100 | 0 | 0 | 192 | 0,6 | 996,9 |
| 5 | Longaví Norte | 05-05-2026 01:00 | 10,3 | 100 | 0 | 0 | 192 | 0,6 | 997,2 |
| 4 | Longaví Norte | 05-05-2026 00:45 | 10,4 | 100 | 0 | 0 | 192 | 0,6 | 997,3 |
| 3 | Longaví Norte | 05-05-2026 00:30 | 10,6 | 100 | 0 | 0 | 192 | 0,6 | 997,3 |
| 2 | Longaví Norte | 05-05-2026 00:15 | 10,8 | 100 | 0 | 0 | 192 | 0,6 | 997,3 |
| 1 | Longaví Norte | 05-05-2026 00:00 | 10,8 | 100 | 0 | 0 | 192 | 0,6 | 997,2 |